User: anonymous   Login
Location: Unspecified
(0.0000°N, 0.0000°E)
Time: 12:19:25
(UTC+00:00)
Language:

USA 171 - Orbit

View from above orbital plane
View from above orbital plane
View from above satellite
View from above satellite

Ground track
Ground track

The orbit data is extracted from the following two-line orbital elements,

1 27937U 03041A   17136.34539799 0.00000000  00000-0  00000-0 0    06
2 27937   9.2530  66.5628 0045305 212.3068 147.4646  1.00270000    03
Epoch (UTC): 16 May 2017 08:17:22
Eccentricity: 0.0045305
inclination: 9.2530°
perigee height: 35595 km
apogee height: 35978 km
right ascension of ascending node: 66.5628°
argument of perigee: 212.3068°
revolutions per day: 1.00270000
mean anomaly at epoch: 147.4646°
orbit number at epoch: 0

The dashed part of the orbit path shows where the satellite is in the earth's shadow,  

DLR